R. Weryk (西オンタリオ大学,物理および天文学科)の通報によると、9月7日、Haleakalaにある
Pan-STARRS2の1.8-m Ritchey-Chretien 反射望遠鏡で得た画像から彗星を発見した。
4枚の45-秒w-バンドサーベイ画像ては、1"のシーイングで、1".5 (半値全幅:FWHM)の集光した
頭部が見えた。尾はない。
Werykは、7月29.6日UT (21.6等と測定した時)に遡る9夜、発見前の多数のPan-STARRS画像でこの
彗星を同定した。 7月30.6日、4枚の45-秒w-バンドサーベイ画像て、1".3のシーイングで、1".6
(FWHM)の集光した頭部が見えた。20.9-21.0等、尾はない。
佐藤英貴氏(東京都文京区,9月8.3日、60-秒露出16枚のスタック, 0.51-m f/6.8 アストログラフ,
Utah Desert Remote 天文台, Beryl Junction近郊, ユタ州, 米国, 遠隔操作:恒星状にしか見え
ない。4".9の円形範囲で測定した光度は19.4等であった。
彗星機能の報告は次のとおり、
OC Date Reporter Coma Tail PA Exposures
F52 2023-07-30 R. Weryk 0".3 4x45s
246 2023-09-11 M. Tichy 4"
W62 2023-09-14 J. Maikner 5" 15" 215 90x60s
発見位置は次のとおり、
2023 UT R.A. (2000) Decl. Mag.
Sept. 7.57001 0 59 56.43 +31 45 19.4 20.1
7.58095 0 59 56.01 +31 45 19.2 20.3
7.59183 0 59 55.58 +31 45 18.8 20.5
7.60272 0 59 55.15 +31 45 18.7 19.7
MPCの楕円軌道要素、位置推算表は次のとおり、
Orbital elements:
C/2023 R1 (PANSTARRS)
Epoch 2023 Sept. 13.0 TT = JDT 2460200.5
T 2026 Apr. 17.83229 TT Rudenko
q 3.5672340 (2000.0) P Q
z +0.0017602 Peri. 144.54168 +0.06681540 -0.88905632
+/-0.0015371 Node 62.52721 -0.99197709 -0.01036848
e 0.9937211 Incl. 149.30550 -0.10731802 -0.45768040
From 91 observations 2023 July 29-Sept. 14, mean residual 0".3.
Ephemeris:
Date TT R. A. (2000) Decl. Delta r Elong. Phase m1
2023 08 15 01 12 41.5 +31 33 20 8.2246 8.6354 110.7 6.3 19.9
...
2023 08 30 01 05 09.2 +31 45 43 7.9225 8.5407 124.9 5.6 19.8
...
2023 09 07 01 00 18.4 +31 45 32 7.7785 8.4901 132.3 5.0 19.7
...
2023 09 13 00 56 20.5 +31 41 54 7.6802 8.4521 137.7 4.6 19.7
2023 09 14 00 55 39.4 +31 41 00 7.6647 8.4458 138.6 4.5 19.7
2023 09 15 00 54 57.9 +31 40 00 7.6495 8.4395 139.5 4.4 19.7
...
2023 09 21 00 50 41.5 +31 32 08 7.5639 8.4015 144.5 4.0 19.6
...
2023 09 29 00 44 44.0 +31 16 36 7.4664 8.3508 150.2 3.4 19.6
...
2023 10 14 00 33 11.9 +30 32 27 7.3382 8.2556 155.4 2.9 19.5
(MPEC 2023-R197、CBET 5293)